Location: Casone le Fosse
(44.6547°N, 12.1103°E)
Time: 11:01:59
(UTC+00:00)

Cosmos 2297 Rocket - Pass Details

Date: 29 October 2020
Orbit: 838 x 845 km, 71.0° (Epoch: 27 November)

Event Time Altitude Azimuth Distance (km) Brightness Sun altitude
Rises 17:31:47 0° 330° (NNW) 3,413 5.7 -16.1°
Reaches altitude 10° 17:34:16 10° 326° (NW) 2,474 5.0 -16.5°
Maximum altitude 17:39:47 54° 251° (WSW) 1,017 3.0 -17.5°
Drops below altitude 10° 17:45:16 10° 175° (S) 2,455 4.6 -18.5°
Sets 17:47:44 0° 171° (S) 3,385 5.3 -18.9°
